This is the latest recevied weather packets stored in our database for station/object OE3EMC-13. If no packets are shown the sender has not sent any weather packets the latest 10 day(s).
| Time | Temp. | Humidity | Pressure | Rain* | Wind** | Luminosity | Snow |
|---|---|---|---|---|---|---|---|
| 1777638191 | 18.33° C | 39% | 1100 hPa | 0 mm | - | - | - |
| 1777637590 | 17.78° C | 39% | 1100 hPa | 0 mm | - | - | - |
| 1777636991 | 17.78° C | 39% | 1100 hPa | 0 mm | - | - | - |
| 1777636390 | 17.78° C | 43% | 1100 hPa | 0 mm | - | - | - |
| 1777635790 | 17.78° C | 43% | 1100 hPa | 0 mm | - | - | - |
| 1777635190 | 18.89° C | 41% | 1100 hPa | 0 mm | - | - | - |
| 1777634589 | 18.89° C | 41% | 1100 hPa | 0 mm | - | - | - |
| 1777633994 | 17.78° C | 42% | 1100 hPa | 0 mm | - | - | - |
| 1777633394 | 17.78° C | 42% | 1100 hPa | 0 mm | - | - | - |
| 1777632794 | 17.22° C | 41% | 1100 hPa | 0 mm | - | - | - |
| 1777632194 | 17.22° C | 41% | 1100 hPa | 0 mm | - | - | - |
| 1777631594 | 16.67° C | 44% | 1100 hPa | 0 mm | - | - | - |
| 1777630995 | 16.67° C | 44% | 1100 hPa | 0 mm | - | - | - |
| 1777630394 | 16.11° C | 43% | 1100 hPa | 0 mm | - | - | - |
| 1777629795 | 16.11° C | 43% | 1100 hPa | 0 mm | - | - | - |
| 1777629194 | 15° C | 45% | 1100 hPa | 0 mm | - | - | - |
| 1777628593 | 15° C | 45% | 1100 hPa | 0 mm | - | - | - |
| 1777627993 | 14.44° C | 49% | 1100 hPa | 0 mm | - | - | - |
| 1777627394 | 14.44° C | 49% | 1100 hPa | 0 mm | - | - | - |
| 1777626793 | 13.33° C | 49% | 1100 hPa | 0 mm | - | - | - |
| 1777626193 | 13.33° C | 49% | 1100 hPa | 0 mm | - | - | - |
| 1777625592 | 11.67° C | 52% | 1100 hPa | 0 mm | - | - | - |
| 1777624992 | 11.67° C | 52% | 1100 hPa | 0 mm | - | - | - |
| 1777624392 | 10° C | 53% | 1100 hPa | 0 mm | - | - | - |
| 1777623793 | 10° C | 53% | 1100 hPa | 0 mm | - | - | - |
* Rain latest hour (hover to see other rain measurements)
** Current wind speed in m/s (hover to see current wind gust speed)